GFSMW_850_rhum_129.txt.gz
RH
36 38 43 48 48 42 48 57 61 60 55 50 47 49 53 61 66 62 60 61 62 67 69 65 63 61 56 67 72 83 82 82 83 76 70 53 92 83 86 81 83 86 87
38 38 48 50 46 43 52 60 65 63 62 62 61 61 64 69 70 70 68 73 81 77 76 78 76 75 78 75 78 85 95 92 90 92 91 93 82 86 79 74 75 74 84
41 46 52 51 43 47 56 61 63 62 65 66 65 65 66 65 67 61 66 77 81 82 86 87 87 84 84 86 85 82 83 96 89 86 97 91 87 80 72 72 80 79 98
51 53 52 43 41 44 55 60 62 67 64 67 66 64 68 67 59 56 54 61 69 68 73 78 80 82 83 84 83 88 88 91 93 86 88 87 91 94 84 80 79 74 78
53 50 44 39 39 42 52 59 63 67 65 67 67 72 74 65 60 56 47 44 42 38 36 35 35 50 76 80 81 84 83 99 98 99 95 85 93 98 100 98 95 83 83
46 46 38 35 35 36 44 54 62 67 68 66 70 74 72 57 42 29 24 20 16 13 10 8 10 16 22 27 67 85 84 90 99 100 100 100 99 99 89 83 86 86 80
44 41 33 32 34 36 41 49 61 68 71 68 72 73 55 37 32 28 23 18 13 7 5 5 5 6 6 8 12 26 80 81 81 97 99 100 100 100 93 83 77 77 73
41 34 31 32 32 34 39 47 58 67 72 72 72 69 40 37 34 31 27 21 14 7 5 8 8 9 9 9 8 9 10 42 79 64 82 94 94 95 93 91 89 88 93
39 31 32 33 33 35 39 44 55 64 69 70 70 53 41 40 38 37 33 27 18 8 7 9 7 7 7 7 8 9 10 11 13 28 29 48 67 81 86 85 82 90 99
37 32 32 32 33 36 42 44 48 55 67 71 72 49 41 42 42 42 40 34 24 11 8 7 6 7 8 9 9 10 11 11 11 12 14 16 18 22 24 30 54 76 83
40 42 37 34 36 38 40 44 47 51 58 64 66 49 41 43 44 45 45 42 33 17 9 8 9 11 11 12 13 14 14 14 15 14 14 16 16 16 17 17 18 20 23
28 30 43 42 39 39 40 42 48 50 54 62 63 51 43 44 46 47 48 46 38 20 10 9 12 14 15 16 16 17 18 18 17 18 20 22 23 25 26 30 29 26 26
34 32 32 42 40 39 35 38 47 51 56 64 64 57 48 47 47 49 50 50 44 26 11 10 13 15 16 18 19 22 23 23 22 23 23 24 28 34 40 45 47 45 42
33 32 32 34 35 32 33 33 39 51 57 62 65 62 56 53 51 51 52 52 48 30 12 11 15 16 17 18 21 23 28 31 32 30 29 30 33 37 40 43 46 51 53
29 31 31 32 31 25 26 32 39 45 58 64 65 62 61 60 57 55 54 54 51 36 13 12 15 16 18 20 20 22 29 34 40 39 38 38 38 40 50 60 59 63 76
26 31 30 32 24 25 31 38 42 50 57 66 65 66 67 64 62 59 57 56 53 39 14 12 15 16 18 20 23 22 34 37 39 42 40 39 39 40 40 44 54 77 100
27 31 32 29 25 28 33 32 35 42 56 60 64 66 71 72 67 62 61 58 54 41 15 14 15 16 18 20 25 26 31 37 40 40 40 41 44 46 52 57 60 59 68
29 30 31 27 30 32 35 37 38 37 39 56 62 65 70 75 76 64 63 60 55 41 16 15 17 19 18 18 22 30 30 37 42 45 45 47 49 52 60 71 82 80 75
35 31 28 31 33 34 37 38 36 38 40 41 57 66 69 75 80 66 65 61 56 40 16 16 18 20 21 20 22 31 31 38 44 48 51 57 62 63 86 100 99 97 89
38 35 34 34 37 38 42 40 38 40 39 42 50 69 75 78 80 65 66 61 56 37 16 18 20 22 21 24 23 26 32 39 52 58 61 69 72 84 100 100 98 97 95
40 39 37 38 37 39 44 42 41 39 42 49 59 72 80 80 71 66 67 61 54 31 17 21 21 23 23 24 28 29 34 45 64 97 100 83 86 94 100 99 97 93 99
44 40 41 39 38 39 45 44 43 43 46 52 61 71 76 76 66 68 66 60 51 24 16 21 23 26 26 23 27 31 32 53 100 100 100 100 100 99 100 100 82 65 77
48 45 44 44 42 44 48 49 48 51 52 56 60 70 74 67 67 69 65 60 45 20 17 23 23 25 26 24 28 32 33 50 85 100 92 100 100 99 89 72 60 59 58
50 50 50 50 49 49 53 56 56 54 54 62 64 69 68 67 70 68 63 58 38 17 18 23 24 25 25 26 29 32 39 62 83 89 95 97 100 89 79 65 64 66 70
49 48 47 45 42 45 51 57 58 56 55 68 69 70 69 71 70 66 62 53 27 19 22 24 25 26 24 26 28 37 62 90 100 100 100 97 88 70 65 65 66 70 74
40 41 41 42 42 40 38 41 55 63 64 74 72 71 72 71 67 64 60 46 22 21 25 26 25 25 25 25 29 36 96 100 100 100 100 94 73 72 73 73 74 79 82

GFSMW_850_rhum_132.txt.gz
RH
38 34 34 38 44 44 35 36 45 51 54 54 55 56 58 58 61 60 61 64 70 71 73 73 74 76 72 72 74 76 77 72 94 96 84 78 76 74 73 74 70 62 86
40 40 33 38 45 40 32 39 49 57 58 58 59 60 63 64 64 61 61 67 71 74 78 81 81 77 73 72 74 79 85 79 77 96 98 83 70 62 59 69 82 80 80
40 56 34 40 42 32 32 44 54 58 62 63 62 61 63 66 61 55 53 53 59 55 55 56 58 59 70 80 82 81 87 98 89 88 97 94 77 80 74 78 83 87 93
54 57 40 43 36 33 36 47 54 59 64 63 64 64 65 64 57 55 47 41 39 36 32 31 32 29 29 37 59 83 86 89 100 87 95 90 96 98 89 60 78 89 83
50 43 44 41 35 35 37 46 54 59 63 64 63 66 62 62 54 34 25 21 16 12 9 6 5 5 5 10 16 52 85 81 84 99 99 98 99 98 95 89 95 88 100
47 45 44 37 34 35 36 42 47 53 60 64 63 67 65 51 34 29 25 20 16 11 6 4 4 6 6 6 6 9 18 72 78 80 98 99 99 100 100 98 97 90 99
46 42 41 35 34 34 35 37 41 47 55 62 64 67 68 42 35 31 29 25 21 15 8 6 6 6 6 6 7 8 9 10 40 74 65 86 93 95 99 100 100 99 98
41 40 41 39 35 35 35 37 38 42 50 59 64 66 68 40 37 36 35 33 28 20 10 8 6 6 6 6 6 8 9 10 11 13 30 27 38 63 84 98 99 99 98
44 40 39 35 33 33 34 36 40 43 46 54 63 67 68 40 39 39 40 39 37 29 17 9 6 7 8 9 9 10 10 10 10 12 13 12 13 15 20 29 63 92 100
33 30 29 35 33 34 35 37 39 43 47 51 58 64 67 43 40 42 43 44 43 37 23 11 8 9 10 11 12 12 13 14 13 13 14 14 14 14 15 18 25 40 79
41 41 31 30 37 42 36 37 39 41 46 50 54 61 64 50 42 44 46 47 47 43 30 14 9 10 12 13 14 14 15 15 16 17 16 18 18 20 20 21 21 23 22
41 38 31 30 31 43 44 38 41 40 43 51 56 59 64 57 44 45 47 49 50 48 40 21 10 11 13 14 15 16 16 17 18 19 21 23 25 30 32 46 45 33 31
36 36 38 34 31 31 39 42 39 34 40 50 56 59 61 60 50 47 48 50 52 52 46 27 11 12 13 14 17 19 21 22 23 24 25 27 30 49 58 84 91 83 66
34 35 33 36 32 33 35 34 28 28 35 45 56 62 63 63 58 52 51 52 54 54 51 36 14 11 13 15 18 21 26 29 30 30 31 31 31 32 43 68 87 93 96
34 36 37 33 31 29 24 25 28 34 41 46 52 58 64 67 66 59 56 55 56 56 54 41 17 11 12 15 17 20 25 30 34 35 34 35 36 35 37 42 84 96 98
36 38 34 34 32 26 27 28 31 32 37 43 53 60 65 69 69 65 61 59 59 58 56 46 21 13 13 15 17 16 23 30 33 35 36 35 36 38 42 46 53 58 93
40 40 39 33 33 29 31 32 34 34 36 38 39 56 68 71 73 72 68 63 61 60 58 50 24 13 15 17 18 17 19 30 35 35 37 38 40 41 43 48 57 72 66
45 44 41 36 33 32 33 35 37 39 39 37 38 42 57 68 74 78 75 71 63 62 59 53 28 14 16 18 18 19 20 26 32 34 37 44 48 50 49 71 98 100 100
43 48 44 41 37 34 35 38 39 43 42 39 40 43 48 62 76 78 79 78 66 64 61 53 26 14 17 20 20 20 23 27 34 38 43 50 76 92 76 99 100 100 100
47 53 47 43 39 37 39 39 39 42 44 42 44 45 48 55 72 78 82 82 67 64 60 53 27 16 18 21 20 23 22 31 43 49 61 75 80 88 100 100 100 100 99
56 51 48 46 42 42 43 42 43 43 45 46 46 46 50 59 73 86 89 86 65 65 60 50 23 17 18 22 22 24 24 36 49 61 89 90 98 100 100 99 100 100 100
49 52 53 49 46 47 48 48 47 48 50 51 51 51 55 64 80 90 93 78 65 63 58 42 21 20 20 22 23 23 24 32 71 95 94 98 100 100 99 100 100 71 63
39 40 41 38 35 38 42 44 44 52 54 54 53 53 60 66 80 90 89 66 66 63 57 40 20 20 23 24 25 23 28 35 40 75 97 100 100 100 100 100 72 60 62
35 38 42 42 42 42 43 44 42 44 49 55 56 56 65 69 80 83 68 67 69 62 54 33 19 23 26 25 25 26 31 34 44 61 97 99 100 100 87 69 61 63 66
42 38 41 49 49 49 46 47 49 48 43 52 62 62 69 72 74 70 67 80 79 60 47 24 21 26 25 25 25 26 30 44 70 100 100 100 100 100 95 81 70 71 74
40 42 42 41 39 50 54 50 52 58 53 47 60 67 74 74 71 70 70 77 65 66 76 33 23 27 26 24 26 25 29 34 98 100 100 99 100 99 91 82 75 79 77

GFSMW_850_rhum_135.txt.gz
RH
19 41 61 52 32 37 43 34 33 39 46 52 59 83 93 86 69 58 54 54 59 65 70 74 75 75 74 70 75 70 63 54 70 69 81 74 76 72 67 62 67 73 73
18 30 63 68 39 48 44 32 32 38 44 49 54 58 61 61 59 55 52 51 52 55 53 51 48 46 49 60 67 58 53 67 78 99 95 88 82 68 60 60 60 60 62
31 26 59 69 56 56 38 29 32 34 39 50 55 59 64 71 69 56 52 46 41 39 36 31 24 20 17 18 21 34 68 73 74 82 100 99 94 100 83 70 84 91 78
47 37 50 62 72 47 29 26 26 32 39 49 57 62 70 74 63 53 37 24 19 15 11 7 5 4 4 5 6 12 28 75 77 76 86 99 99 99 96 78 95 90 92
49 50 57 62 48 30 26 26 29 32 39 49 58 61 67 64 57 38 27 23 18 15 11 6 4 5 6 6 6 6 9 29 69 79 78 81 88 91 100 99 84 98 98
58 60 61 46 35 29 27 28 31 35 40 46 54 59 62 62 46 33 28 26 24 20 15 9 6 6 5 5 6 7 9 16 17 43 71 77 87 89 99 100 100 87 94
52 57 59 56 37 29 28 29 32 36 42 45 48 52 57 61 48 34 32 31 31 28 22 15 10 7 5 5 6 6 8 12 21 18 20 32 32 46 73 100 100 99 100
46 53 54 51 41 31 29 30 32 35 40 40 44 50 54 59 50 36 35 36 37 36 33 26 16 8 6 7 8 10 11 12 20 40 26 19 15 15 21 39 62 96 96
46 48 48 42 38 35 30 30 33 35 37 42 44 49 53 54 56 39 37 39 41 41 40 34 25 12 7 8 9 11 13 13 18 22 23 25 25 29 24 27 64 95 98
33 35 37 40 45 55 49 42 34 34 39 41 46 48 52 54 57 48 39 42 44 46 45 41 29 15 8 9 11 14 17 17 20 26 26 28 28 48 40 36 31 54 48
36 38 37 38 45 51 57 47 45 38 38 42 44 50 53 56 57 56 42 42 45 48 49 47 37 20 10 10 12 14 16 18 20 24 23 26 32 54 49 60 62 53 39
30 32 33 34 42 47 56 48 59 49 40 42 46 49 56 58 58 59 51 44 46 49 52 51 45 28 12 11 12 14 18 18 22 25 28 35 33 52 65 66 76 80 76
28 30 32 32 36 38 47 60 66 52 45 44 42 49 63 67 63 63 60 48 47 50 52 54 50 37 16 11 12 14 16 20 24 25 27 32 36 55 60 70 87 88 93
30 31 34 34 35 36 41 44 48 46 35 35 40 45 54 62 66 67 65 56 50 51 53 55 54 45 22 11 12 14 19 25 22 24 27 28 31 32 32 38 78 91 94
32 34 37 36 36 38 39 36 30 32 34 34 36 40 52 64 75 74 70 64 57 55 55 56 56 50 31 12 12 15 21 36 34 27 32 31 32 34 34 38 41 53 83
35 37 39 40 39 39 39 40 34 33 34 36 36 39 44 56 71 76 75 72 65 59 58 58 58 54 38 15 12 14 17 23 28 30 30 25 35 38 39 41 47 52 57
38 39 40 43 44 45 43 40 34 36 38 38 39 40 42 46 52 70 78 77 74 66 62 60 59 57 43 18 13 16 17 20 23 23 25 25 40 40 46 47 63 92 98
43 44 44 49 51 48 44 42 40 38 39 39 40 44 43 45 51 64 75 82 82 74 65 61 60 58 47 20 15 18 18 19 22 26 22 25 38 48 69 63 79 94 90
53 55 58 58 53 49 53 51 44 42 42 40 43 48 49 50 53 56 60 73 86 83 72 66 62 60 50 24 16 19 20 20 21 27 24 31 38 54 92 94 100 100 100
57 49 43 48 51 49 49 48 47 47 46 46 48 50 50 51 52 55 62 73 88 90 77 78 78 60 52 24 16 21 22 23 26 32 35 44 67 77 97 100 100 99 99
44 39 38 40 37 38 39 37 39 40 45 48 52 52 53 54 53 58 67 82 93 95 81 93 96 60 49 22 17 21 24 24 25 34 40 60 88 95 100 100 100 100 100
43 42 39 36 43 47 49 46 43 43 43 42 42 47 54 56 56 62 75 87 95 98 95 99 98 59 48 22 19 23 24 24 26 34 48 72 75 89 100 99 99 100 99
28 26 29 32 38 39 41 48 50 48 45 48 50 44 51 59 61 68 81 88 96 94 98 99 94 61 43 20 20 24 24 24 26 28 33 65 92 100 100 100 100 100 71
15 13 12 11 11 17 30 40 40 53 53 49 54 53 49 59 65 71 82 86 94 84 99 94 96 66 38 20 22 23 24 24 24 27 37 55 99 100 100 100 87 81 76
13 13 12 11 9 11 12 15 33 41 49 55 55 61 57 59 68 73 78 81 85 75 77 98 85 66 40 21 25 26 23 25 24 39 68 91 94 99 100 99 90 89 85
12 13 16 12 10 9 9 7 16 34 44 50 57 61 67 69 72 77 75 74 71 69 87 97 83 97 44 27 27 26 24 26 26 62 82 87 96 100 100 95 85 85 88

GFSMW_850_rhum_141.txt.gz
RH
14 16 23 29 32 30 30 28 35 25 26 30 38 48 55 61 53 51 53 50 48 43 40 38 36 30 22 13 5 4 4 4 4 4 5 24 64 72 73 69 80 79 75
22 21 32 38 38 39 34 29 32 26 27 29 32 37 45 47 48 50 53 51 42 27 18 13 9 7 5 4 4 4 4 5 7 13 39 55 44 32 76 77 78 91 79
36 34 37 40 42 39 36 36 28 26 27 29 31 34 38 41 43 50 54 51 32 21 17 14 12 9 7 6 5 5 5 6 10 16 57 83 92 58 80 78 87 78 88
43 45 42 41 37 34 34 36 27 24 26 28 30 32 34 34 38 46 52 44 29 22 20 19 17 15 13 10 7 6 5 5 7 14 21 71 99 96 95 63 64 73 86
40 40 42 41 37 36 32 29 25 24 26 28 30 32 32 34 37 42 47 43 30 25 24 26 25 24 21 16 10 7 6 6 8 12 17 21 44 100 77 80 45 40 60
43 43 43 40 37 34 31 29 27 25 27 29 31 32 34 36 38 40 42 44 33 28 28 30 31 31 29 23 15 9 8 8 8 9 13 19 21 25 32 48 39 27 18
47 48 47 45 45 45 44 43 40 34 32 30 31 34 35 36 38 42 44 46 43 33 33 35 37 38 36 31 22 12 9 9 9 10 14 18 21 29 39 45 50 57 28
38 38 40 41 42 43 45 47 46 45 46 43 36 36 37 39 40 43 47 48 50 43 36 38 42 44 43 38 28 18 11 9 10 12 15 19 24 31 44 57 59 62 58
30 29 30 30 31 31 30 31 40 48 49 51 49 43 39 40 42 46 49 52 56 55 43 40 43 46 48 46 40 27 14 10 13 15 17 21 25 33 45 60 69 69 77
29 29 31 32 33 33 34 36 36 38 46 56 55 53 49 45 46 50 50 51 55 59 57 46 43 46 50 51 46 34 18 12 13 14 16 19 20 25 35 50 62 71 71
29 31 32 34 36 36 36 36 37 38 40 52 60 56 55 52 51 52 47 50 57 58 61 60 47 45 49 52 51 43 27 16 12 14 15 20 23 30 37 46 56 69 74
31 32 34 36 31 38 37 39 39 37 39 42 54 54 53 49 45 42 44 54 60 65 66 66 60 47 48 52 54 49 34 19 14 16 19 21 22 24 27 34 44 52 70
33 36 36 37 33 36 40 41 41 42 39 40 41 39 38 40 40 43 44 50 58 65 72 70 67 60 49 51 54 54 46 30 16 13 16 19 22 22 25 29 30 35 44
39 38 38 35 38 37 36 40 42 44 46 47 46 45 45 48 48 48 48 51 56 64 70 73 71 68 58 50 53 55 50 36 20 14 18 23 23 22 25 26 27 32 34
39 37 36 40 44 44 43 43 42 41 42 42 44 43 44 46 48 49 52 56 59 62 66 76 78 74 68 58 53 55 54 41 23 17 20 23 22 19 20 22 27 34 37
36 37 34 34 36 40 43 43 43 43 44 43 43 44 44 44 43 44 47 54 58 59 68 77 81 79 74 71 58 55 55 47 26 19 21 31 30 29 32 25 37 40 52
32 36 38 40 42 40 39 40 39 39 38 37 35 34 34 34 36 42 47 51 56 60 66 74 82 82 78 74 68 57 56 94 39 20 20 24 30 30 26 26 36 44 55
41 40 36 31 30 32 27 24 24 25 29 33 35 39 41 40 40 40 39 44 54 57 62 68 74 84 82 80 76 63 60 96 71 23 20 22 28 27 28 32 34 39 50
39 24 17 15 15 17 18 19 18 17 13 12 11 13 24 40 44 44 46 46 44 51 59 63 69 80 87 86 81 68 61 98 99 28 21 22 29 31 29 33 44 47 50
20 18 19 20 20 21 20 20 18 17 13 12 10 9 11 18 29 43 48 50 46 43 50 58 67 79 90 89 83 73 64 96 98 40 22 23 30 38 32 29 46 54 50
21 19 18 18 15 10 7 7 6 5 6 7 7 7 9 16 21 32 46 57 57 50 49 57 64 80 89 89 84 83 70 95 99 34 22 24 31 42 46 82 71 64 87
17 15 13 12 10 7 6 8 8 8 10 10 10 9 10 13 21 28 39 52 68 65 61 65 70 81 87 90 84 91 91 99 97 33 23 27 34 40 44 86 70 96 100
15 12 9 7 7 7 11 17 14 20 28 29 27 22 20 17 23 27 32 51 66 74 69 73 78 84 87 89 91 85 98 100 81 28 25 32 38 38 42 71 95 90 88
12 8 9 12 12 12 20 22 25 30 37 43 48 46 44 38 38 33 35 50 63 73 76 75 79 86 86 81 93 96 100 92 61 42 30 39 39 38 48 59 65 77 85
8 8 14 21 21 25 27 28 32 45 53 58 61 61 60 58 49 37 44 54 58 70 82 78 78 83 85 88 96 100 100 97 80 40 54 51 41 75 60 55 63 70 86
7 10 17 23 21 26 36 37 51 61 70 75 76 76 77 79 83 87 83 69 70 76 76 82 80 79 89 96 96 99 98 97 48 46 42 37 46 75 49 54 60 71 89